H1 CPF 2 NER 2022 1 22 9 022 01 glonass121 H2 1000702 9121 36401 2022 1 22 0 0 0 2022 1 25 23 45 0 900 1 1 0 0 0 1 H9 10 0 59601 0.00000 0 8540323.410 -6341087.759 23171473.615 10 0 59601 900.00000 0 9743562.069 -3732826.782 23271570.975 10 0 59601 1800.00000 0 11134527.852 -1238493.728 22919513.101 10 0 59601 2700.00000 0 12673419.512 1082034.844 22122520.711 10 0 59601 3600.00000 0 14310932.777 3177448.870 20896423.975 10 0 59601 4500.00000 0 15990255.927 5006885.575 19265329.143 10 0 59601 5400.00000 0 17649391.655 6541364.168 17261129.315 10 0 59601 6300.00000 0 19223707.865 7764718.443 14922870.175 10 0 59601 7200.00000 0 20648611.121 8673992.077 12295983.878 10 0 59601 8100.00000 0 21862232.017 9279283.776 9431406.321 10 0 59601 9000.00000 0 22808011.758 9603051.830 6384594.709 10 0 59601 9900.00000 0 23437083.558 9678909.566 3214463.994 10 0 59601 10800.00000 0 23710351.276 9549963.758 -17738.225 10 0 59601 11700.00000 0 23600180.113 9266766.453 -3249597.826 10 0 59601 12600.00000 0 23091630.132 8884966.038 -6418720.164 10 0 59601 13500.00000 0 22183181.923 8462755.521 -9463914.688 10 0 59601 14400.00000 0 20886924.312 8058223.968 -12326357.032 10 0 59601 15300.00000 0 19228195.708 7726720.970 -14950707.705 10 0 59601 16200.00000 0 17244692.768 7518343.454 -17286167.436 10 0 59601 17100.00000 0 14985081.513 7475649.345 -19287450.114 10 0 59601 18000.00000 0 12507166.248 7631693.539 -20915655.572 10 0 59601 18900.00000 0 9875689.618 8008468.807 -22139025.949 10 0 59601 19800.00000 0 7159852.290 8615818.102 -22933571.208 10 0 59601 20700.00000 0 4430652.646 9450865.705 -23283551.215 10 0 59601 21600.00000 0 1758154.611 10497993.686 -23181804.076 10 0 59601 22500.00000 0 -791204.606 11729367.829 -22629912.828 10 0 59601 23400.00000 0 -3157155.856 13105994.361 -21638205.202 10 0 59601 24300.00000 0 -5287882.943 14579266.572 -20225584.109 10 0 59601 25200.00000 0 -7141955.345 16092939.435 -18419189.572 10 0 59601 26100.00000 0 -8689826.803 17585451.572 -16253896.228 10 0 59601 27000.00000 0 -9914835.638 18992498.360 -13771653.915 10 0 59601 27900.00000 0 -10813663.149 20249748.221 -11020682.459 10 0 59601 28800.00000 0 -11396229.327 21295586.849 -8054535.309 10 0 59601 29700.00000 0 -11685029.264 22073771.914 -4931050.034 10 0 59601 30600.00000 0 -11713937.944 22535883.693 -1711206.683 10 0 59601 31500.00000 0 -11526534.406 22643465.188 1542082.241 10 0 59601 32400.00000 0 -11174017.638 22369758.342 4765224.505 10 0 59601 33300.00000 0 -10712804.682 21700960.312 7895216.639 10 0 59601 34200.00000 0 -10201915.538 20636944.740 10870900.517 10 0 59601 35100.00000 0 -9700258.882 19191416.393 13634180.878 10 0 59601 36000.00000 0 -9263936.695 17391492.438 16131177.604 10 0 59601 36900.00000 0 -8943684.759 15276728.710 18313288.388 10 0 59601 37800.00000 0 -8782559.430 12897633.376 20138139.972 10 0 59601 38700.00000 0 -8813969.733 10313732.280 21570409.105 10 0 59601 39600.00000 0 -9060138.217 7591269.195 22582497.631 10 0 59601 40500.00000 0 -9531054.822 4800639.055 23155049.814 10 0 59601 41400.00000 0 -10223966.455 2013662.713 23277303.576 10 0 59601 42300.00000 0 -11123421.764 -699182.380 22947270.968 10 0 59601 43200.00000 0 -12201866.947 -3271460.571 22171746.753 10 0 59601 44100.00000 0 -13420765.370 -5643294.386 20966147.237 10 0 59601 45000.00000 0 -14732191.971 -7763596.297 19354184.673 10 0 59601 45900.00000 0 -16080834.161 -9591925.956 17367385.345 10 0 59601 46800.00000 0 -17406314.495 -11099899.057 15044462.066 10 0 59601 47700.00000 0 -18645737.652 -12272092.779 12430554.174 10 0 59601 48600.00000 0 -19736355.552 -13106413.728 9576350.139 10 0 59601 49500.00000 0 -20618240.133 -13613916.388 6537109.628 10 0 59601 50400.00000 0 -21236853.330 -13818082.376 3371603.514 10 0 59601 51300.00000 0 -21545408.391 -13753592.713 140991.373 10 0 59601 52200.00000 0 -21506925.398 -13464645.744 -3092343.071 10 0 59601 53100.00000 0 -21095896.393 -13002891.553 -6265977.415 10 0 59601 54000.00000 0 -20299491.491 -12425069.157 -9318635.721 10 0 59601 54900.00000 0 -19118255.888 -11790444.622 -12191352.153 10 0 59601 55800.00000 0 -17566268.356 -11158156.254 -14828592.216 10 0 59601 56700.00000 0 -15670753.436 -10584576.784 -17179311.606 10 0 59601 57600.00000 0 -13471161.631 -10120801.845 -19197933.553 10 0 59601 58500.00000 0 -11017753.445 -9810369.093 -20845226.824 10 0 59601 59400.00000 0 -8369743.232 -9687303.243 -22089068.095 10 0 59601 60300.00000 0 -5593076.799 -9774569.285 -22905074.146 10 0 59601 61200.00000 0 -2757932.060 -10082999.879 -23277091.203 10 0 59601 62100.00000 0 63956.335 -10610743.767 -23197531.042 10 0 59601 63000.00000 0 2802039.584 -11343260.944 -22667545.790 10 0 59601 63900.00000 0 5389652.036 -12253867.739 -21697036.025 10 0 59601 64800.00000 0 7766551.848 -13304812.116 -20304489.664 10 0 59601 65700.00000 0 9881199.086 -14448837.037 -18516652.191 10 0 59601 66600.00000 0 11692675.320 -15631168.635 -16368032.165 10 0 59601 67500.00000 0 13172163.167 -16791847.287 -13900249.365 10 0 59601 68400.00000 0 14303922.063 -17868304.131 -11161236.474 10 0 59601 69300.00000 0 15085717.573 -18798074.035 -8204308.813 10 0 59601 70200.00000 0 15528684.807 -19521529.132 -5087119.952 10 0 59601 71100.00000 0 15656630.864 -19984515.196 -1870524.057 10 0 59601 72000.00000 0 15504805.712 -20140776.540 1382631.381 10 0 59601 72900.00000 0 15118194.328 -19954063.788 4608756.845 10 0 59601 73800.00000 0 14549404.134 -19399832.357 7744789.223 10 0 59601 74700.00000 0 13856239.619 -18466457.325 10729449.710 10 0 59601 75600.00000 0 13099069.858 -17155911.518 13504463.966 10 0 59601 76500.00000 0 12338103.500 -15483877.289 16015718.307 10 0 59601 77400.00000 0 11630689.513 -13479287.322 18214327.392 10 0 59601 78300.00000 0 11028760.242 -11183314.626 20057591.488 10 0 59601 79200.00000 0 10576526.459 -8647855.637 21509824.255 10 0 59601 80100.00000 0 10308522.360 -5933571.922 22543035.327 10 0 59601 81000.00000 0 10248082.624 -3107574.296 23137455.577 10 0 59601 81900.00000 0 10406314.420 -240847.618 23281896.594 10 0 59601 82800.00000 0 10781605.651 2594475.232 22973939.522 10 0 59601 83700.00000 0 11359687.628 5327876.491 22219951.949 10 0 59601 84600.00000 0 12114246.945 7893139.501 21034934.887 10 0 59601 85500.00000 0 13008058.305 10230847.315 19442204.967 10 0 59602 0.00000 0 13994588.594 12290592.351 17472920.078 10 0 59602 900.00000 0 15020003.895 14032809.229 15165457.901 10 0 59602 1800.00000 0 16025493.079 15430155.242 12564663.091 10 0 59602 2700.00000 0 16949812.207 16468388.202 9720974.534 10 0 59602 3600.00000 0 17731942.298 17146705.635 6689452.091 10 0 59602 4500.00000 0 18313750.645 17477535.259 3528720.190 10 0 59602 5400.00000 0 18642545.473 17485787.685 299847.949 10 0 59602 6300.00000 0 18673418.468 17207604.176 -2934813.758 10 0 59602 7200.00000 0 18371278.471 16688652.635 -6112817.189 10 0 59602 8100.00000 0 17712492.337 15982043.183 -9172803.322 10 0 59602 9000.00000 0 16686064.832 15145949.952 -12055666.997 10 0 59602 9900.00000 0 15294308.172 14241037.525 -14705680.667 10 0 59602 10800.00000 0 13552972.318 13327798.355 -17071556.721 10 0 59602 11700.00000 0 11490828.909 12463911.165 -19107429.249 10 0 59602 12600.00000 0 9148723.829 11701729.626 -20773737.299 10 0 59602 13500.00000 0 6578134.840 11086005.598 -22037993.268 10 0 59602 14400.00000 0 3839290.979 10651941.936 -22875421.783 10 0 59602 15300.00000 0 998928.486 10423656.890 -23269456.302 10 0 59602 16200.00000 0 -1872226.756 10413125.557 -23212082.926 10 0 59602 17100.00000 0 -4702148.537 10619644.679 -22704023.251 10 0 59602 18000.00000 0 -7420261.671 11029845.660 -21754750.731 10 0 59602 18900.00000 0 -9960142.339 11618258.037 -20382337.905 10 0 59602 19800.00000 0 -12262055.430 12348402.539 -18613134.886 10 0 59602 20700.00000 0 -14275222.554 13174370.301 -16481282.885 10 0 59602 21600.00000 0 -15959724.877 14042823.680 -14028069.950 10 0 59602 22500.00000 0 -17287959.470 14895335.429 -11301139.612 10 0 59602 23400.00000 0 -18245586.138 15670967.609 -8353566.797 10 0 59602 24300.00000 0 -18831923.244 16308980.342 -5242818.608 10 0 59602 25200.00000 0 -19059774.505 16751553.947 -2029620.731 10 0 59602 26100.00000 0 -18954693.416 16946406.628 1223247.032 10 0 59602 27000.00000 0 -18553716.647 16849193.794 4452200.603 10 0 59602 27900.00000 0 -17903621.100 16425584.244 7594119.975 10 0 59602 28800.00000 0 -17058780.382 15652922.423 10587608.402 10 0 59602 29700.00000 0 -16078714.066 14521404.107 13374215.162 10 0 59602 30600.00000 0 -15025436.422 13034714.267 15899595.608 10 0 59602 31500.00000 0 -13960719.752 11210099.645 18114583.829 10 0 59602 32400.00000 0 -12943390.644 9077873.180 19976155.878 10 0 59602 33300.00000 0 -12026775.244 6680372.158 21448264.349 10 0 59602 34200.00000 0 -11256402.380 4070415.359 22502528.382 10 0 59602 35100.00000 0 -10668061.358 1309325.564 23118766.852 10 0 59602 36000.00000 0 -10286295.188 -1535398.307 23285366.049 10 0 59602 36900.00000 0 -10123390.745 -4392660.952 22999476.847 10 0 59602 37800.00000 0 -10178905.785 -7190494.216 22267039.909 10 0 59602 38700.00000 0 -10439749.736 -9858811.276 21102640.764 10 0 59602 39600.00000 0 -10880811.960 -12332077.806 19529199.809 10 0 59602 40500.00000 0 -11466108.340 -14551790.988 17577505.114 10 0 59602 41400.00000 0 -12150395.882 -16468665.833 15285598.484 10 0 59602 42300.00000 0 -12881185.996 -18044440.851 12698027.719 10 0 59602 43200.00000 0 -13601071.166 -19253231.270 9864979.948 10 0 59602 44100.00000 0 -14250267.301 -20082376.727 6841312.754 10 0 59602 45000.00000 0 -14769265.676 -20532751.050 3685501.419 10 0 59602 45900.00000 0 -15101484.272 -20618523.791 458521.711 10 0 59602 46800.00000 0 -15195808.659 -20366385.300 -2777311.382 10 0 59602 47700.00000 0 -15008917.270 -19814268.809 -5959527.919 10 0 59602 48600.00000 0 -14507294.841 -19009623.288 -9026689.021 10 0 59602 49500.00000 0 -13668850.416 -18007308.910 -11919553.457 10 0 59602 50400.00000 0 -12484072.439 -16867202.098 -14582203.847 10 0 59602 51300.00000 0 -10956672.019 -15651608.948 -16963112.399 10 0 59602 52200.00000 0 -9103686.128 -14422593.523 -19016126.978 10 0 59602 53100.00000 0 -6955034.293 -13239331.181 -20701359.515 10 0 59602 54000.00000 0 -4552544.415 -12155596.264 -21985960.320 10 0 59602 54900.00000 0 -1948484.880 -11217488.328 -22844763.577 10 0 59602 55800.00000 0 796339.493 -10461491.797 -23260791.138 10 0 59602 56700.00000 0 3614852.113 -9912950.717 -23225604.037 10 0 59602 57600.00000 0 6436239.058 -9585023.628 -22739493.404 10 0 59602 58500.00000 0 9188650.520 -9478164.219 -21811505.120 10 0 59602 59400.00000 0 11801958.793 -9580151.819 -20459295.413 10 0 59602 60300.00000 0 14210458.986 -9866672.934 -18708817.637 10 0 59602 61200.00000 0 16355399.734 -10302431.824 -16593843.812 10 0 59602 62100.00000 0 18187237.426 -10842745.349 -14155327.950 10 0 59602 63000.00000 0 19667518.097 -11435556.206 -11440621.683 10 0 59602 63900.00000 0 20770306.037 -12023780.016 -8502556.353 10 0 59602 64800.00000 0 21483097.158 -12547886.517 -5398409.042 10 0 59602 65700.00000 0 21807176.861 -12948604.127 -2188773.125 10 0 59602 66600.00000 0 21757406.079 -13169630.999 1063643.269 10 0 59602 67500.00000 0 21361444.143 -13160234.718 4295265.495 10 0 59602 68400.00000 0 20658441.775 -12877627.285 7442920.479 10 0 59602 69300.00000 0 19697260.902 -12289011.573 10445097.056 10 0 59602 70200.00000 0 18534298.768 -11373209.893 13243171.236 10 0 59602 71100.00000 0 17231011.056 -10121803.681 15782570.017 10 0 59602 72000.00000 0 15851241.647 -8539734.968 18013848.997 10 0 59602 72900.00000 0 14458474.525 -6645343.953 19893661.546 10 0 59602 73800.00000 0 13113126.002 -4469841.558 21385600.190 10 0 59602 74700.00000 0 11869992.861 -2056240.364 22460894.083 10 0 59602 75600.00000 0 10775964.247 542209.742 23098950.129 10 0 59602 76500.00000 0 9868092.945 3264014.114 23287728.925 10 0 59602 77400.00000 0 9172105.465 6041769.333 23023950.285 10 0 59602 78300.00000 0 8701411.037 8804744.280 22313126.793 10 0 59602 79200.00000 0 8456648.062 11481598.482 21169427.041 10 0 59602 80100.00000 0 8425783.788 14003125.002 19615373.467 10 0 59602 81000.00000 0 8584759.788 16304905.100 17681382.548 10 0 59602 81900.00000 0 8898653.262 18329766.280 15405157.711 10 0 59602 82800.00000 0 9323303.186 20029943.969 12830947.745 10 0 59602 83700.00000 0 9807331.484 21368859.908 10008685.554 10 0 59602 84600.00000 0 10294473.613 22322446.240 6993023.855 10 0 59602 85500.00000 0 10726120.741 22879963.037 3842286.096 10 0 59603 0.00000 0 11043967.362 23044277.798 617352.255 10 0 59603 900.00000 0 11192654.434 22831597.259 -2619501.874 10 0 59603 1800.00000 0 11122298.018 22270663.915 -5805786.512 10 0 59603 2700.00000 0 10790799.158 21401451.664 -8879985.416 10 0 59603 3600.00000 0 10165838.674 20273414.560 -11782723.564 10 0 59603 4500.00000 0 9226474.001 18943361.155 -14457895.777 10 0 59603 5400.00000 0 7964270.962 17473041.800 -16853735.839 10 0 59603 6300.00000 0 6383922.174 15926547.963 -18923806.903 10 0 59603 7200.00000 0 4503324.451 14367630.355 -20627895.068 10 0 59603 8100.00000 0 2353109.409 12857046.166 -21932789.644 10 0 59603 9000.00000 0 -24356.427 11450044.785 -22812935.265 10 0 59603 9900.00000 0 -2576463.900 10194096.233 -23250942.881 10 0 59603 10800.00000 0 -5242287.588 9126957.006 -23237948.925 10 0 59603 11700.00000 0 -7954869.716 8275154.722 -22773814.233 10 0 59603 12600.00000 0 -10643769.665 7652956.203 -21867156.924 10 0 59603 13500.00000 0 -13237775.418 7261863.974 -20535216.320 10 0 59603 14400.00000 0 -15667665.509 7090664.381 -18803547.982 10 0 59603 15300.00000 0 -17868906.745 7116027.547 -16705553.287 10 0 59603 16200.00000 0 -19784174.587 7303635.892 -14281850.394 10 0 59603 17100.00000 0 -21365589.430 7609795.147 -11579496.907 10 0 59603 18000.00000 0 -22576573.067 7983460.629 -8651078.246 10 0 59603 18900.00000 0 -23393245.165 8368592.978 -5553678.979 10 0 59603 19800.00000 0 -23805298.857 8706742.488 -2347757.583 10 0 59603 20700.00000 0 -23816316.718 8939750.601 904052.135 10 0 59603 21600.00000 0 -23443512.735 9012451.256 4138187.638 10 0 59603 22500.00000 0 -22716910.944 8875254.395 7291425.480 10 0 59603 23400.00000 0 -21677996.188 8486498.840 10302142.771 10 0 59603 24300.00000 0 -20377895.645 7814471.763 13111544.894 10 0 59603 25200.00000 0 -18875170.271 6839006.763 15664833.037 10 0 59603 26100.00000 0 -17233312.179 5552591.264 17912286.680 10 0 59603 27000.00000 0 -15518056.311 3960935.624 19810238.649 10 0 59603 27900.00000 0 -13794622.144 2082979.944 21321923.235 10 0 59603 28800.00000 0 -12125003.374 -49660.838 22418181.092 10 0 59603 29700.00000 0 -10565420.424 -2393789.020 23078008.267 10 0 59603 30600.00000 0 -9164042.601 -4896206.026 23288940.383 10 0 59603 31500.00000 0 -7959074.265 -7495716.325 23047266.547 10 0 59603 32400.00000 0 -6977283.078 -10125468.474 22358071.251 10 0 59603 33300.00000 0 -6233029.004 -12715534.940 21235105.794 10 0 59603 34200.00000 0 -5727831.392 -15195623.103 19700493.962 10 0 59603 35100.00000 0 -5450488.671 -17497805.323 17784279.638 10 0 59603 36000.00000 0 -5377742.224 -19559155.905 15523826.548 10 0 59603 36900.00000 0 -5475453.711 -21324187.226 12963082.869 10 0 59603 37800.00000 0 -5700244.135 -22746986.187 10151725.424 10 0 59603 38700.00000 0 -6001524.416 -23792964.796 7144199.986 10 0 59603 39600.00000 0 -6323831.537 -24440154.677 3998675.903 10 0 59603 40500.00000 0 -6609372.284 -24679994.062 775934.356 10 0 59603 41400.00000 0 -6800668.402 -24517576.548 -2461789.453 10 0 59603 42300.00000 0 -6843193.225 -23971352.650 -5651989.170 10 0 59603 43200.00000 0 -6687890.297 -23072297.377 -8733073.991 10 0 59603 44100.00000 0 -6293469.440 -21862578.564 -11645537.996 10 0 59603 45000.00000 0 -5628384.773 -20393780.821 -14333091.141 10 0 59603 45900.00000 0 -4672411.995 -18724757.930 -16743731.713 10 0 59603 46800.00000 0 -3417758.378 -16919201.488 -18830740.963 10 0 59603 47700.00000 0 -1869657.718 -15043025.274 -20553581.771 10 0 59603 48600.00000 0 -46423.219 -13161672.378 -21878684.764 10 0 59603 49500.00000 0 2021046.819 -11337455.581 -22780106.974 10 0 59603 50400.00000 0 4290293.324 -9627040.572 -23240049.976 10 0 59603 51300.00000 0 6708811.877 -8079176.182 -23249226.685 10 0 59603 52200.00000 0 9215999.957 -6732766.252 -22807068.273 10 0 59603 53100.00000 0 11745458.305 -5615364.334 -21921765.298 10 0 59603 54000.00000 0 14227553.436 -4742155.374 -20610139.939 10 0 59603 54900.00000 0 16592136.557 -4115468.716 -18897349.287 10 0 59603 55800.00000 0 18771306.361 -3724844.816 -16816422.942 10 0 59603 56700.00000 0 20702100.277 -3547654.761 -14407641.564 10 0 59603 57600.00000 0 22329000.571 -3550248.049 -11717766.575 10 0 59603 58500.00000 0 23606148.375 -3689581.249 -8799134.774 10 0 59603 59400.00000 0 24499170.423 -3915258.869 -5708635.034 10 0 59603 60300.00000 0 24986539.199 -4171899.361 -2506587.335 10 0 59603 61200.00000 0 25060406.907 -4401724.402 744452.723 10 0 59603 62100.00000 0 24726876.411 -4547259.212 3980938.728 10 0 59603 63000.00000 0 24005696.735 -4554026.391 7139600.857 10 0 59603 63900.00000 0 22929396.033 -4373115.711 10158708.300 10 0 59603 64800.00000 0 21541889.584 -3963517.713 12979299.293 10 0 59603 65700.00000 0 19896623.364 -3294119.388 15546352.292 10 0 59603 66600.00000 0 18054333.969 -2345275.354 17809873.262 10 0 59603 67500.00000 0 16080521.906 -1109886.788 19725876.600 10 0 59603 68400.00000 0 14042747.213 406057.865 21257239.980 10 0 59603 69300.00000 0 12007863.234 2183502.740 22374416.682 10 0 59603 70200.00000 0 10039306.031 4190903.059 23055992.554 10 0 59603 71100.00000 0 8194553.419 6385336.563 23289078.439 10 0 59603 72000.00000 0 6522859.444 8714099.585 23069532.474 10 0 59603 72900.00000 0 5063357.297 11116719.548 22402010.360 10 0 59603 73800.00000 0 3843607.351 13527298.727 21299844.974 10 0 59603 74700.00000 0 2878647.768 15877090.889 19784759.949 10 0 59603 75600.00000 0 2170583.630 18097203.608 17886424.717 10 0 59603 76500.00000 0 1708728.048 20121314.527 15641861.159 10 0 59603 77400.00000 0 1470285.915 21888289.918 13094714.453 10 0 59603 78300.00000 0 1421548.711 23344598.544 10294402.733 10 0 59603 79200.00000 0 1519548.074 24446422.635 7295162.059 10 0 59603 80100.00000 0 1714097.441 25161380.502 4155004.784 10 0 59603 81000.00000 0 1950135.530 25469791.362 934610.609 10 0 59603 81900.00000 0 2170273.453 25365431.682 -2303829.431 10 0 59603 82800.00000 0 2317439.299 24855753.012 -5497795.054 10 0 59603 83700.00000 0 2337510.238 23961553.107 -8585623.687 10 0 59603 84600.00000 0 2181822.847 22716114.182 -11507681.101 10 0 59603 85500.00000 0 1809457.361 21163843.694 -14207494.715 10 0 59604 0.00000 0 1189200.736 19358473.228 -16632829.147 10 0 59604 900.00000 0 301105.808 17360887.772 -18736685.931 10 0 59604 1800.00000 0 -862418.559 15236676.217 -20478205.969 10 0 59604 2700.00000 0 -2296034.749 13053499.575 -21823462.431 10 0 59604 3600.00000 0 -3981446.650 10878386.765 -22746125.731 10 0 59604 4500.00000 0 -5887917.550 8775067.793 -23227988.807 10 0 59604 5400.00000 0 -7973317.598 6801454.260 -23259341.516 10 0 59604 6300.00000 0 -10185660.982 5007371.447 -22839185.512 10 0 59604 7200.00000 0 -12465072.317 3432636.639 -21975283.554 10 0 59604 8100.00000 0 -14746103.472 2105564.622 -20684040.023 10 0 59604 9000.00000 0 -16960306.711 1041964.052 -18990212.451 10 0 59604 9900.00000 0 -19038958.107 244668.468 -16926457.136 10 0 59604 10800.00000 0 -20915817.887 -296376.661 -14532715.350 10 0 59604 11700.00000 0 -22529811.559 -603472.900 -11855450.114 10 0 59604 12600.00000 0 -23827517.766 -709999.606 -8946747.160 10 0 59604 13500.00000 0 -24765356.189 -658765.385 -5863297.032 10 0 59604 14400.00000 0 -25311380.827 -499950.279 -2665278.472 10 0 59604 15300.00000 0 -25446600.459 -288727.057 584833.962 10 0 59604 16200.00000 0 -25165768.337 -82664.516 3823512.866 10 0 59604 17100.00000 0 -24477606.152 60974.262 6987444.950 10 0 59604 18000.00000 0 -23404452.081 87920.960 10014794.372 10 0 59604 18900.00000 0 -21981348.004 -50539.015 12846435.050 10 0 59604 19800.00000 0 -20254605.546 -395249.131 15427125.383 10 0 59604 20700.00000 0 -18279913.377 -977206.550 17706600.272 10 0 59604 21600.00000 0 -16120067.831 -1816014.421 19640557.812 10 0 59604 22500.00000 0 -13842424.813 -2918827.894 21191520.811 10 0 59604 23400.00000 0 -11516182.335 -4279838.218 22329556.493 10 0 59604 24300.00000 0 -9209609.335 -5880315.822 23032841.367 10 0 59604 25200.00000 0 -6987337.637 -7689209.206 23288061.920 10 0 59604 26100.00000 0 -4907830.231 -9664272.768 23090645.338 10 0 59604 27000.00000 0 -3021130.403 -11753674.593 22444818.182 10 0 59604 27900.00000 0 -1366983.444 -13898015.507 21363494.256 10 0 59604 28800.00000 0 26593.618 -16032673.941 19867996.100 10 0 59604 29700.00000 0 1144238.204 -18090378.332 17987617.509 10 0 59604 30600.00000 0 1983629.479 -20003900.047 15759037.099 10 0 59604 31500.00000 0 2555324.278 -21708755.429 13225595.391 10 0 59604 32400.00000 0 2882052.005 -23145805.864 10436449.977 10 0 59604 33300.00000 0 2997500.776 -24263649.443 7445625.160 10 0 59604 34200.00000 0 2944647.669 -25020706.627 4310974.093 10 0 59604 35100.00000 0 2773704.259 -25386915.146 1093072.669 10 0 59604 36000.00000 0 2539763.992 -25344965.418 -2145934.671 10 0 59604 36900.00000 0 2300249.749 -24891026.452 -5343516.217 10 0 59604 37800.00000 0 2112267.894 -24034932.958 -8437940.195 10 0 59604 38700.00000 0 2029978.724 -22799826.075 -11369446.677 10 0 59604 39600.00000 0 2102092.483 -21221262.289 -14081383.167 10 0 59604 40500.00000 0 2369595.051 -19345826.497 -16521283.617 10 0 59604 41400.00000 0 2863798.252 -17229305.202 -18641871.465 10 0 59604 42300.00000 0 3604796.613 -14934493.745 -20401968.424 10 0 59604 43200.00000 0 4600396.265 -12528726.329 -21767292.280 10 0 59604 44100.00000 0 5845562.614 -10081229.096 -22711128.599 10 0 59604 45000.00000 0 7322412.467 -7660404.137 -23214863.098 10 0 59604 45900.00000 0 9000754.190 -5331155.538 -23268363.628 10 0 59604 46800.00000 0 10839156.947 -3152367.480 -22870203.008 10 0 59604 47700.00000 0 12786508.013 -1174638.906 -22027716.522 10 0 59604 48600.00000 0 14783996.563 561630.613 -20756890.725 10 0 59604 49500.00000 0 16767443.919 2027723.139 -19082083.198 10 0 59604 50400.00000 0 18669884.772 3207589.296 -17035576.156 10 0 59604 51300.00000 0 20424292.316 4098296.985 -14656970.269 10 0 59604 52200.00000 0 21966333.004 4709921.368 -11992428.469 10 0 59604 53100.00000 0 23237034.074 5064879.377 -9093783.243 10 0 59604 54000.00000 0 24185249.733 5196736.044 -6017524.154 10 0 59604 54900.00000 0 24769819.598 5148532.996 -2823685.612 10 0 59604 55800.00000 0 24961325.543 4970710.639 425342.273 10 0 59604 56700.00000 0 24743370.166 4718713.775 3666054.738 10 0 59604 57600.00000 0 24113320.679 4450384.588 6835098.712 10 0 59604 58500.00000 0 23082485.333 4223256.589 9870536.949 10 0 59604 59400.00000 0 21675714.438 4091867.526 12713082.488 10 0 59604 60300.00000 0 19930443.191 4105208.366 15307276.829 10 0 59604 61200.00000 0 17895218.017 4304419.169 17602586.634 10 0 59604 62100.00000 0 15627770.424 4720831.425 19554396.149 10 0 59604 63000.00000 0 13192721.596 5374440.859 21124875.372 10 0 59604 63900.00000 0 10659016.479 6272875.404 22283707.103 10 0 59604 64800.00000 0 8097196.727 7410901.296 23008659.733 10 0 59604 65700.00000 0 5576627.891 8770486.792 23285996.150 10 0 59604 66600.00000 0 3162797.107 10321419.050 23110712.884 10 0 59604 67500.00000 0 914793.358 12022446.386 22486607.173 10 0 59604 68400.00000 0 -1116926.314 13822896.190 21426173.063 10 0 59604 69300.00000 0 -2892394.092 15664699.282 19950330.850 10 0 59604 70200.00000 0 -4383538.102 17484735.085 18087997.110 10 0 59604 71100.00000 0 -5575083.697 19217399.368 15875505.222 10 0 59604 72000.00000 0 -6464915.512 20797287.611 13355888.769 10 0 59604 72900.00000 0 -7063888.925 22161883.002 10578042.271 10 0 59604 73800.00000 0 -7395102.031 23254138.375 7595775.540 10 0 59604 74700.00000 0 -7492661.082 24024846.102 4466779.670 10 0 59604 75600.00000 0 -7399992.895 24434699.016 1251523.777 10 0 59604 76500.00000 0 -7167775.809 24455958.164 -1987897.297 10 0 59604 77400.00000 0 -6851576.051 24073659.321 -5188943.416 10 0 59604 78300.00000 0 -6509288.142 23286308.957 -8289816.534 10 0 59604 79200.00000 0 -6198485.688 22106040.987 -11230633.799 10 0 59604 80100.00000 0 -5973792.512 20558227.468 -13954565.372 10 0 59604 81000.00000 0 -5884383.198 18680558.407 -16408916.645 10 0 59604 81900.00000 0 -5971717.009 16521627.220 -18546135.429 10 0 59604 82800.00000 0 -6267599.784 14139078.529 -20324725.762 10 0 59604 83700.00000 0 -6792655.388 11597392.678 -21710051.512 10 0 59604 84600.00000 0 -7555271.880 8965396.257 -22675014.592 10 0 59604 85500.00000 0 -8551068.435 6313599.562 -23200594.418 99